STARLINK-11669, 63548

Orbit data source: Space-Track

STARLINK-11669, 63548 is a payload satellite owned by SpaceX/Seattle (US) in LEO that was launched on Sun, 13 Apr 2025 UTC via an FALCON 9 launch vehicle from the Air Force Eastern Test Range (AFETR). Payload-class satellites include a variety of spacecraft equipped with specific instruments for various scientific and technological missions. These include communications satellites like Starlink; space stations such as the ISS; scientific satellites like the Hubble; Earth observation satellites from companies like Planet Labs, Umbra, and HawkEye 360; GPS; miniature CubeSats for education and research; and military/defense satellites.

Loading next visibility...
Identifier
63548, 2025-075A
Orbit
LEO
Country
Flag of USUS
Related business
Manufacturer
SpaceX/Seattle
Mission
Operational Commercial Communications
Bus & Motor
STARLINK V2MD, Unknown motor
Mass
960 kg wet, ~910 kg dry
Launch date (UTC)
2025-04-13 (1 year ago)
Launch vehicle
FALCON 9
Launch site
Air Force Eastern Test Range (AFETR)
Object type
Payload
Rocket body
Debris
Shape & HBR
Box + 2 Pan, 18.1 m
Radar Cross Section
36.964 m², Large (>1 m²)

Expand to show TLE details & history
Last TLE update: 1 day ago

TLE from 1 day ago
0 STARLINK-11669
1 63548U 25075A   26170.55112289  .00135317  00000-0  10404-2 0  9995
2 63548  42.9989 259.3789 0002570 293.1953  66.8643 15.70850614 69272
Epoch: 2026-06-19T13:13Z
TLE epoch observation values (Epoch: 2026-06-19T13:13:37.017Z)
Latitude
-0.00008°
Longitude
153.1961°
Altitude
355.556 km
Speed
7.698 km/s
True Right ascension
17h 17m 30s
True Declination
0° 00' 00"
Sunlit
Object was in full shadow at epoch
Visualization orbit readout
Latitude
Unknown
Longitude
Unknown
Altitude
Unknown
Speed
Unknown
Apparent Right ascension
Unknown
Apparent Declination
Unknown
Sunlit
N/A
Visualization observer readout
Local Sidereal Time
07:21:10
Azimuth
Unknown
Elevation
Unknown
Doppler factor
Unknown
Orbital elements
Apogee altitude
360.178 km
Perigee altitude
356.715 km
Semi-major axis
6,736.584 km
Eccentricity
0.00026
Inclination
42.9989°
RAAN
259.3789°
Arg. of periapsis
293.1953°
True anomaly
66.89138°
Mean anomaly
66.8643°
Eccentric anomaly
66.87784°
Mean motion
3.9254 °/min
Orbital period
91.71 mins
BSTAR
0.0010404
Loading maneuver chart data...
Computing Atmospheric mass density...
Loading historical data...
Loading historical data...
Loading historical data...
Loading historical data...
Loading historical data...
Loading historical data...
Loading historical data...

Documentation

Showing up to 5 results
|